Home   Weather   Eirunepé   Past weeks

Flag for Brazil Past Weather in Eirunepé, Amazonas, Brazil — Yesterday and Last 2 Weeks

Now
73 °F

Passing clouds.


Feels Like: 68 °F
Forecast: 73 / 89 °F
Wind: No wind

Location: Leticia / Vasquez Cobo

Current Time: Aug 30, 2016 at 6:16:25 AM

Latest Report: Aug 30, 2016 at 5:00 AM


Visibility: N/A

Pressure: 29.85 "Hg

Humidity: 100%

Dew Point: 73 °F

Location of EirunepéLocation

Past Weather in Eirunepé — Graph

°F

Eirunepé Temperature Yesterday

Maximum temperature yesterday: 90 °F (at 11:00 AM)
Minimum temperature yesterday: 73 °F (at 5:00 AM)
Average temperature yesterday: 78 °F

High & Low Weather Summary for the Past Weeks

 TemperatureHumidityPressure
High93 °F (Aug 15, 1:00 PM)100% (Aug 16, 6:00 AM)30.07 "Hg (Aug 16, 6:00 AM)
Low70 °F (Aug 23, 4:00 AM)24% (Aug 22, 6:00 PM)29.74 "Hg (Aug 19, 4:00 PM)
Average80 °F84%29.88 "Hg
* Reported Aug 15 5:00 AM — Aug 30 5:00 AM, Eirunepé, Weather by CustomWeather, © 2016

Note: Actual official high and low records may vary slightly from our data, if they occured in-between our weather recording intervals... More about our weather records

Advertising

Eirunepé Weather History for the Previous 24 Hours

Scroll right to see more
 ConditionsComfort  
Time TempWeatherWind HumidityBarometerVisibility
5:00 AM
Tue, Aug 30
73 °FPassing clouds.No wind100%29.85 "HgN/A
4:00 AM73 °FPassing clouds.No wind100%29.81 "HgN/A
3:00 AM75 °FPassing clouds.No wind94%29.82 "HgN/A
2:00 AM75 °FPassing clouds.No wind94%29.83 "HgN/A
1:00 AM75 °FPassing clouds.No wind94%29.85 "HgN/A
12:00 AM75 °FPassing clouds.No wind94%29.86 "HgN/A
11:00 PM
Mon, Aug 29
75 °FPassing clouds.No wind94%29.86 "HgN/A
10:00 PM75 °FPassing clouds.No wind100%29.87 "HgN/A
9:00 PM75 °FPartly cloudy.No wind94%29.85 "HgN/A
8:00 PM75 °FScattered showers. Partly cloudy.No wind94%29.84 "HgN/A
7:00 PM75 °FScattered showers. Partly cloudy.No wind94%29.82 "HgN/A
6:00 PM75 °FScattered showers. Passing clouds.3 mph94%29.81 "Hg5 mi
5:00 PM75 °FPartly sunny.3 mph100%29.81 "Hg5 mi
4:00 PM75 °FLight rain. Partly sunny.3 mph94%29.80 "Hg5 mi
3:00 PM79 °FThunderstorms. Broken clouds.5 mph84%29.83 "Hg3 mi
2:00 PM81 °FThunderstorms. Partly sunny.No wind84%29.85 "HgN/A
1:00 PM88 °FThunderstorms. Partly sunny.5 mph70%29.87 "HgN/A
12:00 PM90 °FPartly sunny.No wind67%29.89 "HgN/A
11:00 AM90 °FBroken clouds.5 mph67%29.91 "HgN/A
10:00 AM84 °FSunny.No wind79%29.91 "Hg10 mi
9:00 AM84 °FSunny.No wind74%29.91 "Hg10 mi
8:00 AM81 °FSunny.No wind84%29.90 "Hg10 mi
7:00 AM75 °FSunny.No wind94%29.88 "Hg10 mi
6:00 AM73 °FSunny.No wind100%29.84 "Hg10 mi
Weather by CustomWeather, © 2016

See weather overviewHow to use our weather pages